Presure
150 162 135 152 145 157 200 149 150 168 161 158 134 178 150 160 155 182 147 217 173 113 161 134 158 180 198 136 185 100 84 134 167 157 141 114 93 110
132 134 132 150 139 158 163 137 159 146 147 180 161 162 147 171 143 141 136 153 190 206 209 176 200 149 171 144 208 135 150 141 147 142 190 166 192 186
181 125 172 141 174 183 182 182 147 154 166 160 164 198 171 126 183 155 166 167 163 134 180 145 173 170 144 202 206 201 185 195 207 208 224 162 227 184
123 135 133 177 139 144 133 148 142 176 138 195 159 154 214 215 145 154 194 222 128 190 169 156 199 186 208 193 212 220 211 201 211 227 233 233 127 241
175 192 184 136 191 185 139 145 191 188 122 203 170 188 142 213 193 210 206 204 160 180 212 182 178 168 170 207 241 202 206 216 144 235 244 151 225 242
181 189 189 189 190 132 184 188 134 128 170 165 197 212 213 210 214 216 188 192 212 195 205 207 205 203 134 227 222 223 230 231 228 231 247 245 236 241
191 203 209 203 194 166 177 180 182 216 218 196 186 202 204 212 192 192 199 194 195 158 209 211 212 215 202 235 247 241 229 239 236 218 243 239 245 258
181 186 216 218 217 215 204 199 210 195 212 210 187 187 152 188 188 144 207 197 201 200 239 217 217 226 238 263 264 224 238 230 240 249 231 174 271 272
219 210 212 203 207 211 212 210 193 196 198 205 204 202 202 204 181 196 195 201 235 237 250 245 258 256 253 256 231 263 256 266 255 246 273 266 273 263
222 221 215 209 217 223 209 207 204 204 206 204 205 207 203 204 213 224 225 241 258 255 268 259 251 255 260 269 262 230 263 278 304 300 309 280 255 253
293 336 286 236 238 231 217 214 210 206 206 208 223 224 221 218 231 247 254 257 286 280 286 258 287 292 293 294 306 270 261 298 307 318 325 334 360 373
307 311 311 318 287 286 266 244 251 245 246 250 251 250 252 256 319 314 281 270 274 296 306 293 291 306 306 303 306 310 315 349 382 376 377 374 372 366
304 304 304 303 300 289 301 302 301 304 301 299 300 290 257 251 252 263 315 314 309 312 316 322 317 320 329 360 365 358 356 353 352 355 351 348 342 341
309 336 326 318 312 312 315 308 305 299 267 253 251 249 243 246 251 361 370 374 374 353 374 374 370 368 368 359 362 359 343 340 344 338 335 332 325 322
316 314 306 298 288 277 276 276 277 282 329 275 282 278 264 258 249 233 230 226 378 317 371 257 339 360 361 354 351 338 332 336 331 324 322 322 318 316
284 284 276 302 310 308 319 321 303 317 315 310 315 313 277 310 297 301 305 281 285 294 290 228 240 305 290 284 293 295 278 327 318 314 308 308 312 316
266 269 272 274 275 277 272 269 264 264 255 290 293 297 304 309 311 292 326 320 300 317 298 278 279 293 284 284 276 288 325 318 313 318 324 327 319 320
312 317 307 283 263 264 266 268 270 270 274 284 310 317 311 284 280 282 278 274 279 275 267 277 267 260 262 274 280 283 330 290 275 315 320 284 275 286
322 315 307 311 311 303 294 279 270 260 257 256 262 264 266 287 311 306 287 272 273 266 275 276 277 275 292 262 280 294 280 276 276 272 257 253 253 274
377 338 314 312 304 304 306 304 298 293 288 285 281 273 264 255 252 253 263 273 281 266 257 265 274 280 281 265 275 272 288 279 274 271 270 269 283 283
392 376 366 329 309 308 304 302 302 299 300 299 288 284 282 278 274 270 258 251 248 251 250 267 259 260 277 263 262 266 261 274 271 277 270 280 278 300
455 403 382 369 359 315 300 301 303 301 299 297 297 293 292 292 289 281 278 277 276 273 268 270 265 259 253 249 258 264 264 270 271 266 270 286 293 290
343 355 452 447 397 371 353 307 296 295 295 295 297 293 284 292 296 293 288 286 283 281 274 271 273 273 271 263 260 262 263 261 259 265 282 285 294 287
Wind_Speed
104 110 87 103 90 103 118 96 90 102 98 100 77 97 89 99 95 95 84 97 87 73 92 71 85 88 83 69 78 53 50 61 67 67 69 56 56 59
90 89 89 101 90 108 98 86 110 92 93 103 92 99 86 96 86 81 79 92 103 95 94 86 86 75 79 72 88 75 70 72 77 74 74 73 74 74
117 90 121 100 117 127 118 111 95 96 114 112 106 119 109 83 99 90 96 94 95 78 87 78 87 85 78 91 91 90 85 86 88 87 89 79 84 80
92 100 97 126 101 102 92 108 95 118 88 132 112 102 127 123 87 103 106 114 86 96 104 99 98 91 106 92 107 104 100 93 96 98 91 91 79 85
130 145 136 101 129 125 98 98 130 123 89 127 109 121 89 123 111 120 113 110 100 102 112 94 100 101 100 106 111 105 101 103 88 98 95 85 92 90
135 144 145 141 141 98 124 131 93 91 113 117 126 133 131 128 125 123 103 105 120 108 117 118 117 114 91 126 118 116 110 107 103 102 100 96 93 95
145 153 159 154 147 115 119 120 123 142 130 128 119 129 130 130 111 109 114 109 112 102 129 132 131 126 115 118 113 113 111 109 106 97 104 103 101 104
141 150 157 155 153 151 151 146 144 137 139 136 121 119 104 114 111 96 128 123 127 126 136 128 128 125 127 112 110 113 113 109 109 108 103 92 108 105
160 158 156 152 151 150 148 146 139 138 138 137 137 135 133 137 122 125 126 133 146 138 130 127 120 119 118 117 118 115 114 113 110 109 108 106 105 101
157 157 156 155 157 158 153 151 147 145 142 141 143 145 142 140 143 150 144 137 126 126 122 118 121 119 119 117 114 111 114 114 116 113 110 104 100 100
132 113 138 157 160 159 152 153 151 147 148 150 156 154 149 143 139 137 132 127 118 120 120 117 116 115 116 115 114 113 109 113 112 112 113 114 106 96
117 114 114 110 133 131 141 152 150 154 152 147 143 140 136 132 110 109 120 121 117 110 110 110 110 107 104 106 107 109 112 108 88 85 80 77 75 74
116 116 116 114 115 123 113 113 113 112 113 113 113 115 123 122 120 116 104 104 103 103 107 107 104 106 108 96 82 82 81 81 79 75 74 72 72 72
110 108 112 117 119 119 119 118 117 118 122 123 122 121 120 118 114 97 96 94 91 91 85 84 79 78 74 75 72 68 72 74 71 70 70 70 72 73
107 109 110 111 113 114 113 112 111 109 93 110 106 106 109 108 108 110 108 106 72 85 71 94 75 70 68 67 64 67 69 64 65 66 68 69 71 72
115 114 116 107 103 102 97 94 102 95 94 95 92 92 102 90 93 90 87 92 90 87 84 92 89 75 77 78 73 74 80 60 64 67 67 68 70 73
122 121 119 116 115 112 112 111 111 110 110 97 94 92 88 85 83 88 76 77 82 76 81 82 80 73 76 76 78 74 60 62 64 64 65 64 66 69
110 109 111 117 119 117 114 112 109 107 103 96 86 82 82 89 90 87 86 86 84 83 85 80 79 79 79 77 74 73 59 67 71 63 61 65 69 72
110 111 110 108 107 107 107 110 112 112 111 109 104 101 98 83 75 75 80 84 84 84 80 78 76 73 67 76 77 64 63 68 65 67 76 77 75 72
94 108 109 108 107 105 103 101 100 99 98 96 96 96 98 98 96 92 85 81 77 81 82 77 72 71 68 72 71 77 63 63 65 67 71 72 69 67
92 94 98 109 106 105 103 101 98 97 95 93 93 92 90 89 88 87 89 88 88 85 84 74 75 74 68 72 72 71 74 67 66 63 68 65 66 61
57 93 96 99 104 104 101 99 98 96 94 91 89 88 86 85 84 83 82 80 76 75 77 75 74 74 75 76 73 69 70 66 65 68 65 58 56 57
68 66 58 72 98 100 103 100 97 94 92 90 88 87 85 83 81 81 79 78 76 73 73 72 70 69 68 70 70 69 66 64 64 67 63 55 52 57
Wind_Direction
254 256 255 257 261 259 276 263 266 261 266 265 260 276 269 269 270 278 270 292 287 269 279 263 282 287 292 264 286 261 254 277 284 277 270 266 267 270
254 255 256 261 260 257 263 261 260 265 267 272 272 269 267 279 267 267 264 273 284 287 291 284 289 273 281 266 293 262 270 266 268 270 270 275 271 267
257 249 265 260 265 270 269 267 263 267 264 266 268 284 271 255 276 272 277 279 278 260 281 269 276 275 266 290 290 287 282 283 285 285 288 275 282 268
248 258 256 266 260 261 256 262 260 273 260 280 266 268 283 283 268 273 281 285 259 281 280 278 287 280 290 284 292 288 289 284 288 289 287 286 273 284
264 267 267 257 266 267 260 262 274 274 258 275 265 279 264 280 278 284 284 285 275 274 287 276 280 279 279 287 287 284 285 287 269 287 284 271 280 280
262 264 266 267 269 256 267 271 259 255 269 272 276 278 279 281 280 281 278 280 285 284 288 287 287 287 265 285 287 288 286 284 284 283 282 281 280 280
262 261 263 264 265 262 264 267 268 271 268 272 272 277 277 278 277 278 282 282 283 272 285 284 285 285 284 285 284 283 282 282 283 279 282 278 280 278
260 261 260 262 262 263 266 268 269 269 271 272 271 271 266 275 276 266 283 283 283 283 281 282 282 282 282 280 279 281 282 281 280 279 279 272 276 276
255 258 260 262 264 265 266 268 266 268 270 272 273 275 277 278 275 279 281 280 279 280 280 280 280 280 279 278 280 278 279 278 277 277 277 275 275 274
253 255 257 260 260 259 264 265 267 268 270 272 272 273 274 275 274 274 275 276 277 278 277 276 277 278 278 278 277 277 278 278 277 277 276 275 274 274
254 253 253 254 254 256 260 261 263 266 266 267 267 268 269 271 272 273 274 275 271 274 273 276 273 273 272 275 276 277 278 277 277 279 279 278 275 273
254 255 255 256 257 259 259 259 260 261 263 265 266 267 268 269 264 267 271 273 274 269 268 271 271 271 271 273 275 278 278 276 273 273 274 274 273 272
254 254 256 256 257 258 259 260 261 262 262 262 264 266 267 269 270 272 271 271 271 273 273 274 275 275 275 272 271 272 272 273 273 274 273 273 273 273
254 254 255 257 258 259 260 261 262 263 262 263 264 265 265 266 266 268 267 267 266 267 269 270 270 270 270 270 271 269 269 270 272 272 274 274 274 274
251 252 254 256 257 258 259 260 261 262 260 264 265 266 266 267 267 267 268 268 270 271 268 274 271 270 270 269 269 270 269 269 268 270 271 273 274 275
252 253 254 253 254 256 256 257 258 258 259 260 261 262 267 263 265 265 265 270 269 268 269 268 270 269 271 271 269 269 273 269 269 271 271 272 272 271
251 252 253 253 254 255 256 258 259 260 262 261 262 263 264 265 265 266 264 265 265 266 266 269 270 268 268 269 271 269 264 266 267 268 268 269 272 275
249 249 250 252 253 254 255 255 256 257 258 259 261 263 263 263 264 265 266 266 266 266 269 268 269 270 270 270 269 270 267 271 272 272 272 273 274 275
248 249 249 249 250 252 252 253 254 256 257 259 259 260 261 261 263 262 262 265 265 267 267 267 268 269 267 269 270 266 268 271 272 273 275 277 278 277
245 246 248 249 249 250 250 251 253 254 255 256 257 257 259 260 261 262 262 262 262 264 266 267 267 268 268 269 270 274 269 267 270 271 273 275 275 277
244 244 244 246 248 249 249 250 251 252 253 254 255 257 258 259 259 259 260 261 263 264 265 265 265 267 268 268 270 272 276 276 275 275 277 283 284 284
254 246 244 244 245 247 248 250 250 251 252 253 254 255 257 258 259 259 260 260 261 262 263 264 264 265 265 268 270 270 272 275 275 276 277 281 283 287
252 254 254 249 245 244 246 246 248 249 250 251 253 254 255 256 257 258 260 261 262 262 262 262 264 265 265 264 266 269 270 272 276 280 284 285 285 288